Location: ČR
(50.0000°N, 15.0000°E)
Time: 02:16:11
(UTC+00:00)

N. Korean satellite - Pass Details

Date: 25 September 2021
Orbit: 450 x 495 km, 97.3° (Epoch: 22 October)

Event Time Altitude Azimuth Distance (km) Brightness Sun altitude
Rises 03:30:34 0° 26° (NNE) 2,524 10.8 -13.6°
Reaches altitude 10° 03:33:01 10° 43° (NE) 1,650 10.2 -13.2°
Maximum altitude 03:35:43 20° 93° (E) 1,157 9.5 -12.8°
Drops below altitude 10° 03:38:25 10° 143° (SE) 1,659 9.6 -12.4°
Sets 03:40:53 0° 160° (SSE) 2,541 10.3 -12.0°
